Weather in Novomikhaylovka

Russia / Novosibirsk Oblast     55°04′44″N   76°11′07″E
temp.,
°C
wind,
m/s
gust,
m/s
humid.,
%
clouds,
%
prec.,
mm/h
press.,
hPa
HPBL,
m
1 march, mon
mon101:00−14e71195100 0.6 1013337
04:00−12ene71295100 1.3 1010347
07:00−12ene61194100 1.9 1007327
10:00−11ene6995100 0.7 1006326
13:00−10ne5895100 1.5 1007342
16:00−11ne5794100 0.8 1007341
19:00−12nne4794100 1.1 1009325
22:00−13n469594 0.1 1011246
2 march, tue
tue201:00−18nnw349788 0.1 101439
04:00−20nnw239978 0.0 101520
07:00−22nw2210072 0.0 101620
10:00−21w129857 0.0 101720
13:00−16wsw229076 0.0 1017239
16:00−14sw2290100 0.1 1016356
19:00−15ssw2296100 0.3 101627
22:00−17ssw229685 0.1 101620
3 march, wed
wed301:00−17ssw229782 0.1 101622
04:00−17ssw229785 0.1 101521
07:00−17ssw239789 0.2 101643
10:00−17ssw239672 0.1 101681
13:00−14s469470 0.1 1016281
16:00−12s579399 0.0 1016398
19:00−15ssw5109299 0.1 1016403
22:00−14s61193100 0.1 1015399
4 march, thu
thu401:00−12s61094100 0.4 1015422
04:00−10ssw61194100 0.4 1013418
07:00−9ssw71293100 0.7 1012423
10:00−7ssw71293100 0.3 1011498
13:00−4ssw71292100 0.6 1011612
16:00−3ssw71194100 0.4 1010658
19:00−3s71294100 0.9 1009625
22:00−3ssw81489100 0.3 1008690
5 march, fri
fri501:00−4s71491100 0.3 1007458
04:00−6s51095100 0.3 1004298
07:00−5s5896100 1.4 1003313
10:00−5sw5109599 0.8 1005392
13:00−5w7119196 0.8 1008587
16:00−6sw7128333 0.0 1011567
19:00−7sw9178262 0.0 1011787
22:00−5sw101688100 0.7 10111066